Terminal Aerodrome Forecast
Issued by NWS

Home | Current Version | Previous Version | Text Only | Print | Product List | Glossary On
Versions: 1 2 3 4 5 6 7 8 9 10 11 12 13 14 15 16 17 18 19 20 21 22 23 24
000
FTUS46 KOTX 041120
TAFSFF
TAF
KSFF 041120Z 0412/0512 09004KT P6SM FEW200
     FM041400 20006KT P6SM SCT200
     FM041900 22012G20KT P6SM FEW080 SCT250
     FM050300 VRB04KT P6SM SCT200=

USA.gov is the U.S. government's official web portal to all federal, state and local government web resources and services.